Regional Weather Roundup
Issued by NWS

Home | Current Version | Previous Version | Text Only | Print | Product List | Glossary Off
Versions: 1 2 3 4 5 6 7 8 9 10 11 12 13 14 15 16 17 18 19 20 21 22 23 24 25 26 27 28 29 30 31 32 33 34 35 36 37 38 39 40 41 42 43 44 45 46 47 48 49 50

000
ASUS43 KIND 250859
RWRIN

WEATHER ROUNDUP FOR INDIANA
NATIONAL WEATHER SERVICE INDIANAPOLIS IN
500 AM EDT SAT APR 25 2015

NOTE: "FAIR" INDICATES FEW OR NO CLOUDS BELOW 12,000 FEET WITH NO
SIGNIFICANT WEATHER AND/OR OBSTRUCTIONS TO VISIBILITY.

* - STATION DOES NOT REPORT WEATHER SUCH AS PRECIPITATION OR FOG.

+ - STATION NOT QUALITY CONTROLLED BY THE NATIONAL WEATHER SERVICE.
    USE DATA WITH CAUTION...ESPECIALLY DEWPOINT AND RELATIVE
    HUMIDITY OBSERVATIONS.

INZ001>003-010>013-019-020-251000-
NORTHWEST INDIANA

CITY           SKY/WX    TMP DP  RH WIND       PRES   REMARKS
GARY /AIRPORT/ MOCLDY    47  36  66 E10G16    29.83R
KNOX *+        MOCLDY    43  32  65 E13G23    29.80F

$$

LMZ046-743>745-251000-
SOUTHERN LAKE MICHIGAN

STATION/POSITION TIME  TEMP    WIND        PRES    WAVE
                       AIR SEA DIR/SP/G            HT
                 (UTC) (F)     (DEG/KT/KT) (MB)    (FT)
BURNS HARBOR     0800   45      90/ 13/ 22 1010.2F
MICHIGAN CITY    0800   44      60/ 16/ 19   N/A
5NW MICH CITY    0800   45 44  100/ 16/ 19   N/A     2

$$

INZ004-005-014>016-021>024-251000-
NORTH CENTRAL INDIANA

CITY           SKY/WX    TMP DP  RH WIND       PRES   REMARKS
GOSHEN         CLOUDY    43  38  82 E10       29.86F
SOUTH BEND     CLOUDY    44  38  79 E9G20     29.85F
WARSAW +       MOCLDY    41  37  87 E13G20    29.84F

$$

INZ006>009-017-018-025>027-251000-
NORTHEAST INDIANA

CITY           SKY/WX    TMP DP  RH WIND       PRES   REMARKS
ANGOLA *+      CLOUDY    39  37  93 E12       29.89F
FORT WAYNE     CLOUDY    45  37  73 E18       29.87F

$$

INZ028-029-035-036-043>045-051>053-251000-
WEST CENTRAL INDIANA

CITY           SKY/WX    TMP DP  RH WIND       PRES   REMARKS
GREENCASTLE +  CLOUDY    46  41  81 E10       29.78S
LAFAYETTE      CLOUDY    52  37  56 SE8       29.77F
TERRE HAUTE    CLOUDY    50  44  80 E7        29.75F

$$

INZ030>032-037>040-046>048-054>057-064-065-251000-
CENTRAL INDIANA

CITY           SKY/WX    TMP DP  RH WIND       PRES   REMARKS
FRANKFORT +    CLOUDY    51  39  63 E10       29.81F
GREENWOOD *+   CLOUDY    50  43  76 SE5       29.82F
INDIANAPOLIS   CLOUDY    49  43  80 E9        29.79F
-EAGLE CREEK   CLOUDY    50  42  74 SE7       29.80F
KOKOMO *+      CLOUDY    48  36  61 E16       29.80F
MT COMFORT *+  CLOUDY    50  36  57 SE8       29.83S
SHELBYVILLE    CLOUDY    51  43  74 SE9       29.82F

$$

INZ033-034-041-042-049-050-058-059-251000-
EAST CENTRAL INDIANA

CITY           SKY/WX    TMP DP  RH WIND       PRES   REMARKS
MUNCIE         CLOUDY    51  36  56 SE9       29.83F

$$

INZ060-061-067>069-081>083-085>088-251000-
SOUTHWEST INDIANA

CITY           SKY/WX    TMP DP  RH WIND       PRES   REMARKS
EVANSVILLE     CLOUDY    57  43  59 SE7       29.73F
HUNTINGBURG *+ CLOUDY    54  45  71 S6        29.75F

$$

INZ062-063-066-070>080-084-089>092-251000-
SOUTH CENTRAL AND SOUTHEAST INDIANA

CITY           SKY/WX    TMP DP  RH WIND       PRES   REMARKS
BLOOMINGTON    CLOUDY    51  45  79 E10       29.77F
MADISON *+     CLOUDY    50  41  71 E10       29.83F
SEYMOUR +      CLOUDY    52  46  82 E9        29.80F

$$




USA.gov is the U.S. government's official web portal to all federal, state and local government web resources and services.